Home > Time Zones > World Clock > Weather > Mali > Bamako > Past weeks

Flag for Mali Weather past 2 weeks in Bamako, Mali

Now
100 °F

Partly sunny.


Feels Like: 99 °F
Forecast: 75 / 108 °F
Wind: 5 mph from South

Location: Bamako / Senou


UV Index: 10 (Very high)

Visibility: N/A


Pressure: 29.89 "Hg

Humidity: 22%

Dew point: 55 °F

Location of BamakoLocation

Historic Weather in Bamako

°F

Bamako temperature yesterday

Maximum temperature yesterday: 106 °F (at 3:00 PM)
Minimum temperature yesterday: 82 °F (at 12:00 AM)
Average temperature yesterday: 94 °F

Past Weeks' High & Low Weather Summary

 TemperatureHumidityPressure
High108 °F (Apr 3, 3:00 PM)69% (Apr 11, 3:30 AM)29.98 "Hg (Apr 11, 3:30 AM)
Low73 °F (Apr 11, 3:30 AM)5% (Apr 12, 4:00 PM)29.74 "Hg (Apr 12, 4:30 PM)
Average92 °F25%29.86 "Hg
* Reported Apr 1 12:00 Noon — Apr 16 12:00 Noon, Bamako, Weather by CustomWeather, © 2014

Note: Actual official high and low records may vary slightly from our data, if they occured in-between our weather recording intervals... More about our weather records

Advertising

Historic Weather Conditions — Data for Previous 24 hours

 ConditionsComfort  
Time TempWeatherWind HumidityBarometerVisibility
12:00 PM
Apr 16
100 °FPartly sunny.5 mph22%29.89 "HgN/A
9:30 AM93 °FSunny.8 mph34%29.92 "Hg10 mi
9:00 AM91 °FPassing clouds.7 mph38%29.92 "HgN/A
8:30 AM90 °FSunny.8 mph41%29.92 "Hg10 mi
8:00 AM88 °FSunny.9 mph43%29.89 "Hg10 mi
7:30 AM84 °FPassing clouds.5 mph51%29.89 "HgN/A
6:30 AM84 °FPassing clouds.7 mph51%29.86 "HgN/A
6:00 AM84 °FPassing clouds.6 mph51%29.86 "HgN/A
5:30 AM86 °FPassing clouds.5 mph46%29.86 "HgN/A
5:00 AM86 °FThunderstorms. Passing clouds.5 mph46%29.86 "HgN/A
4:30 AM86 °FThunderstorms. Passing clouds.6 mph43%29.83 "HgN/A
4:00 AM86 °FThunderstorms. Passing clouds.3 mph43%29.83 "HgN/A
3:30 AM86 °FThunderstorms. Passing clouds.7 mph46%29.83 "HgN/A
3:00 AM86 °FThunderstorms. Passing clouds.9 mph49%29.83 "HgN/A
2:30 AM88 °FThunderstorms. Passing clouds.10 mph31%29.86 "HgN/A
2:00 AM91 °FThunderstorms. Passing clouds.8 mph28%29.86 "HgN/A
1:30 AM90 °FThunderstorms. Passing clouds.7 mph29%29.86 "HgN/A
1:00 AM91 °FThunderstorms. Passing clouds.2 mph26%29.86 "HgN/A
11:00 PM
Apr 15
91 °FClear.5 mph28%29.86 "Hg10 mi
10:30 PM93 °FClear.3 mph26%29.86 "Hg10 mi
10:00 PM93 °FClear.3 mph24%29.86 "Hg10 mi
9:30 PM95 °FClear.6 mph23%29.86 "Hg10 mi
9:00 PM90 °FClear.3 mph29%29.83 "Hg10 mi
8:30 PM91 °FClear.1 mph28%29.83 "Hg10 mi
8:00 PM93 °FClear.1 mph26%29.80 "Hg10 mi
7:30 PM95 °FClear.1 mph23%29.80 "Hg10 mi
7:00 PM100 °FPassing clouds.5 mph18%29.80 "HgN/A
6:30 PM100 °FPassing clouds.3 mph18%29.80 "HgN/A
6:00 PM102 °FPassing clouds.6 mph17%29.77 "HgN/A
5:30 PM102 °FPassing clouds.7 mph17%29.77 "HgN/A
5:00 PM104 °FPassing clouds.3 mph16%29.77 "HgN/A
4:30 PM106 °FScattered clouds.2 mph14%29.77 "HgN/A
4:00 PM104 °FScattered clouds.5 mph16%29.80 "HgN/A
3:30 PM104 °FScattered clouds.8 mph15%29.80 "HgN/A
3:00 PM106 °FScattered clouds.1 mph15%29.80 "HgN/A
2:00 PM104 °FScattered clouds.6 mph17%29.83 "HgN/A
1:30 PM104 °FScattered clouds.5 mph17%29.86 "HgN/A
1:00 PM102 °FScattered clouds.3 mph20%29.86 "HgN/A
Weather by CustomWeather, © 2014

See weather overview